This is the latest recevied weather packets stored in our database for station/object KD2DXJ. If no packets are shown the sender has not sent any weather packets the latest 10 day(s).
| Time | Temp. | Humidity | Pressure | Rain* | Wind** | Luminosity | Snow |
|---|---|---|---|---|---|---|---|
| 1778264827 | 10.56° C | 53% | 1010.4 hPa | 0 mm | - | 227 W/m² | - |
| 1778264524 | 10.56° C | 50% | 1010.2 hPa | 0 mm | - | 219 W/m² | - |
| 1778264220 | 10.56° C | 50% | 1010.4 hPa | 0 mm | - | 209 W/m² | - |
| 1778263917 | 10.56° C | 50% | 1010.5 hPa | 0 mm | - | 230 W/m² | - |
| 1778263614 | 10.56° C | 53% | 1010.2 hPa | 0 mm | - | 189 W/m² | - |
| 1778263311 | 11.11° C | 49% | 1010.3 hPa | 0 mm | - | 234 W/m² | - |
| 1778263007 | 11.11° C | 48% | 1010.2 hPa | 0 mm | - | 261 W/m² | - |
| 1778262704 | 11.11° C | 44% | 1010.2 hPa | 0 mm | - | 347 W/m² | - |
| 1778262402 | 11.11° C | 48% | 1010.4 hPa | 0 mm | - | 206 W/m² | - |
| 1778262098 | 11.11° C | 46% | 1010.4 hPa | 0 mm | - | 303 W/m² | - |
| 1778261795 | 11.11° C | 48% | 1010.4 hPa | 0 mm | - | 334 W/m² | - |
| 1778261491 | 11.11° C | 48% | 1010.5 hPa | 0 mm | - | 322 W/m² | - |
| 1778261189 | 10.56° C | 48% | 1010.6 hPa | 0 mm | - | 325 W/m² | - |
| 1778260885 | 11.11° C | 47% | 1010.4 hPa | 0 mm | - | 275 W/m² | - |
| 1778260582 | 11.11° C | 51% | 1010.3 hPa | 0 mm | - | 247 W/m² | - |
| 1778260278 | 11.11° C | 44% | 1010.4 hPa | 0 mm | - | 259 W/m² | - |
| 1778259975 | 11.67° C | 44% | 1010.3 hPa | 0 mm | - | 275 W/m² | - |
| 1778259673 | 11.67° C | 43% | 1010.3 hPa | 0 mm | - | 261 W/m² | - |
| 1778259370 | 11.11° C | 45% | 1010.5 hPa | 0 mm | - | 275 W/m² | - |
| 1778259067 | 12.22° C | 40% | 1010.4 hPa | 0 mm | - | 344 W/m² | - |
| 1778258763 | 13.33° C | 44% | 1010.6 hPa | 0 mm | - | 449 W/m² | - |
| 1778258460 | 13.33° C | 43% | 1010.4 hPa | 0 mm | - | 938 W/m² | - |
| 1778258157 | 12.78° C | 45% | 1010.5 hPa | 0 mm | - | 971 W/m² | - |
| 1778257854 | 13.89° C | 43% | 1010.6 hPa | 0 mm | - | 756 W/m² | - |
| 1778257551 | 13.89° C | 41% | 1010.5 hPa | 0 mm | - | 903 W/m² | - |
* Rain latest hour (hover to see other rain measurements)
** Current wind speed in m/s (hover to see current wind gust speed)